Back to catalog

STARLINK-33652

AliveCommunicationsVLEO
NORAD 63400·PAYLOAD·🇺🇸 United States

Launched Mar 31, 2025 from Cape Canaveral Space Force Station

Loading…

Next Passes (next 24 hours)

TLE

FreshSource: CelesTrak SupGP

Epoch: Sep 15, 2026, 02:38 UTC

1 63400C 25065B   26258.11020833  .00056921  00000+0  20612-2 0  2585
2 63400  42.9993 116.9161 0001568 272.9941 106.9720 15.27557867    19

Track STARLINK-33652 in real time with AllMySat

Download on the App Store